Location: Palomar Mountain Lodge
(33.3110°N, 116.8495°W)
Time: 23:45:16
(UTC-08:00)

Cosmos 1733 - Pass Details

Date: 14 June 2018
Orbit: 506 x 524 km, 82.5° (Epoch: 16 November)

Event Time Altitude Azimuth Distance (km) Brightness Sun altitude
Rises 21:25:50 0° 353° (N) 2,617 7.6 -15.7°
Reaches altitude 10° 21:27:58 10° 353° (N) 1,726 6.6 -16.0°
Maximum altitude 21:31:45 88° 272° (W) 511 3.1 -16.6°
Enters shadow 21:33:35 29° 176° (S) 946 4.1 -16.9°
